EW6229 Weather Reports


time (UTC)temp
C
wind
direction
speed
KPH
gust
KPH
rain 1hr
cm
rain 24hr
cm
rain mn
cm
humidity
%
barometer
mb
20260507124637 7 276 6.4 25.7 0.18 0.18 0.18 84 1013.7
20260507124631 7 283 4.8 17.7 0.23 0.23 0.23 87 1013.8
20260507123631 8 263 12.9 32.2 0.10 0.10 0.08 82 1013.5
20260507123132 8 337 14.5 32.2 0.05 0.05 0.05 80 1013.2
20260507122631 9 246 16.1 33.8 0.00 0.00 0.00 76 1012.9
20260507122133 10 207 19.3 43.5 0.00 0.00 0.00 73 1012.8
20260507121636 10 238 22.5 45.1 0.00 0.00 0.00 68 1012.3
20260507121135 11 252 24.1 45.1 0.00 0.00 0.00 64 1012.2
20260507120632 11 296 22.5 40.2 0.00 0.00 0.00 62 1011.8
20260507120352 11 286 20.9 37.0 0.00 0.00 0.00 59 1011.7
20260507115622 12 296 14.5 37.0 0.00 0.00 0.00 56 1011.5
20260507115115 13 293 6.4 32.2 0.00 0.00 0.00 54 1011.5
20260507114609 14 97 8.0 19.3 0.00 0.00 0.00 54 1011.5
20260507114108 14 119 8.0 19.3 0.00 0.00 0.00 52 1011.4
20260507113608 13 113 11.3 24.1 0.00 0.00 0.00 55 1011.5
20260507113108 13 149 11.3 24.1 0.00 0.00 0.00 54 1011.5
20260507112607 13 133 8.0 20.9 0.00 0.00 0.00 55 1011.7
20260507112335 13 159 12.9 24.1 0.00 0.00 0.00 55 1011.7
20260507111604 13 150 12.9 24.1 0.00 0.00 0.00 57 1011.7
20260507111103 13 109 11.3 22.5 0.00 0.00 0.00 55 1011.7
20260507110603 12 173 14.5 25.7 0.00 0.00 0.00 59 1011.8
20260507105604 12 85 17.7 33.8 0.00 0.00 0.00 62 1011.9
20260507105106 12 134 17.7 40.2 0.00 0.00 0.00 60 1011.9
20260507104602 13 104 14.5 40.2 0.00 0.00 0.00 55 1011.8
20260507104101 13 163 11.3 22.5 0.00 0.00 0.00 50 1011.8
20260507103601 13 144 8.0 22.5 0.00 0.00 0.00 49 1011.7
20260507103101 13 177 3.2 14.5 0.00 0.00 0.00 49 1011.4
20260507102602 13 159 4.8 14.5 0.00 0.00 0.00 50 1011.4
20260507102102 14 117 8.0 20.9 0.00 0.00 0.00 48 1011.4
20260507101602 14 78 6.4 20.9 0.00 0.00 0.00 45 1011.4
20260507101057 15 117 6.4 19.3 0.00 0.00 0.00 48 1011.4
20260507100551 15 146 6.4 19.3 0.00 0.00 0.00 48 1011.5
20260507100047 15 118 4.8 19.3 0.00 0.00 0.00 48 1011.5
20260507095810 14 142 6.4 19.3 0.00 0.00 0.00 48 1011.7
20260507095314 13 126 6.4 16.1 0.00 0.00 0.00 50 1011.4
20260507094546 13 109 6.4 17.7 0.00 0.00 0.00 51 1011.8
20260507094047 13 108 6.4 17.7 0.00 0.00 0.00 52 1011.8
20260507093548 13 178 6.4 14.5 0.00 0.00 0.00 53 1011.8
20260507093047 13 132 6.4 17.7 0.00 0.00 0.00 51 1011.7
20260507092547 13 146 6.4 17.7 0.00 0.00 0.00 56 1011.5
20260507092048 12 165 4.8 16.1 0.00 0.00 0.00 55 1011.7
20260507091547 12 205 1.6 8.0 0.00 0.00 0.00 64 1011.8
20260507091047 11 155 1.6 4.8 0.00 0.00 0.00 65 1011.8
20260507090546 11 121 1.6 4.8 0.00 0.00 0.00 65 1011.8
20260507090309 11 273 1.6 8.0 0.00 0.00 0.00 66 1011.8
20260507085808 11 273 3.2 11.3 0.00 0.00 0.00 67 1011.8
20260507085047 11 309 3.2 12.9 0.00 0.00 0.00 68 1011.8
20260507084545 11 289 3.2 12.9 0.00 0.00 0.00 68 1011.8
20260507084045 11 344 3.2 12.9 0.00 0.00 0.00 70 1011.8
20260507083545 11 282 3.2 11.3 0.00 0.00 0.00 71 1011.8
20260507083044 11 263 3.2 11.3 0.00 0.00 0.00 72 1011.8
20260507083038 10 167 6.4 16.1 0.00 0.00 0.00 73 1011.8
20260507082045 10 327 8.0 17.7 0.00 0.00 0.00 74 1011.9
20260507081545 10 292 8.0 17.7 0.00 0.00 0.00 74 1011.8
20260507081303 10 315 6.4 16.1 0.00 0.00 0.00 74 1011.7
20260507080541 10 293 8.0 19.3 0.00 0.00 0.00 72 1011.8
20260507080306 11 298 8.0 19.3 0.00 0.00 0.00 72 1011.7
20260507075541 11 311 8.0 17.7 0.00 0.00 0.00 72 1011.7
20260507075040 11 321 6.4 16.1 0.00 0.00 0.00 73 1011.5
20260507074541 10 316 3.2 16.1 0.00 0.00 0.00 77 1011.5
20260507074040 10 32 0.0 4.8 0.00 0.00 0.00 74 1011.7
20260507073539 9 318 1.6 4.8 0.00 0.00 0.00 77 1011.8
20260507073037 10 318 1.6 4.8 0.00 0.00 0.00 78 1011.7
20260507072537 8 346 0.0 1.6 0.00 0.00 0.00 80 1011.9
20260507072037 8 44 0.0 4.8 0.00 0.00 0.00 79 1011.8
20260507071759 8 44 0.0 4.8 0.00 0.00 0.00 81 1011.8
20260507071031 8 44 0.0 4.8 0.00 0.00 0.00 81 1011.8
20260507070751 8 44 1.6 6.4 0.00 0.00 0.00 80 1011.8
20260507070033 8 44 1.6 6.4 0.00 0.00 0.00 80 1011.8
20260507065529 8 33 3.2 8.0 0.00 0.00 0.00 82 1011.8
20260507065245 7 58 1.6 8.0 0.00 0.00 0.00 85 1011.8
20260507064523 7 41 0.0 4.8 0.00 0.00 0.00 86 1011.9
20260507064021 7 44 0.0 3.2 0.00 0.00 0.00 87 1011.8
20260507063518 6 44 0.0 1.6 0.00 0.00 0.00 88 1011.7
20260507063018 6 44 0.0 3.2 0.00 0.00 0.00 89 1011.8
20260507062519 6 44 1.6 3.2 0.00 0.00 0.00 91 1011.8
20260507062246 5 326 3.2 4.8 0.00 0.00 0.00 92 1011.9
20260507061514 5 326 3.2 6.4 0.00 0.00 0.00 93 1011.9
20260507061014 4 0 1.6 6.4 0.00 0.00 0.00 93 1011.7
20260507060515 4 60 1.6 4.8 0.00 0.00 0.00 92 1011.7
20260507060013 4 60 0.0 0.0 0.00 0.00 0.00 93 1011.8
20260507055511 4 60 0.0 0.0 0.00 0.00 0.00 93 1011.7
20260507055006 4 60 0.0 0.0 0.00 0.00 0.00 92 1011.7
20260507054508 4 60 0.0 0.0 0.00 0.00 0.00 93 1011.7
20260507054228 4 60 0.0 0.0 0.00 0.00 0.00 92 1011.7
20260507053503 4 60 0.0 0.0 0.00 0.00 0.00 92 1011.7
20260507053243 4 60 0.0 0.0 0.00 0.00 0.00 92 1011.5
20260507052502 4 60 0.0 0.0 0.00 0.00 0.00 91 1011.5
20260507052001 4 60 0.0 0.0 0.00 0.00 0.00 91 1011.5
20260507051504 4 60 0.0 0.0 0.00 0.00 0.00 91 1011.5
20260507051000 4 60 0.0 0.0 0.00 0.00 0.00 91 1011.5
20260507050454 4 60 0.0 0.0 0.00 0.00 0.00 91 1011.5
20260507050210 4 60 0.0 0.0 0.00 0.00 0.00 91 1011.5
20260507045704 4 60 0.0 0.0 0.00 0.00 0.00 91 1011.4
20260507044940 5 60 0.0 0.0 0.00 0.00 0.00 90 1011.4
20260507044440 5 60 0.0 0.0 0.00 0.00 0.00 90 1011.3
20260507043940 5 60 0.0 0.0 0.00 0.00 0.00 90 1011.4
20260507043440 5 60 0.0 0.0 0.00 0.00 0.00 90 1011.4
20260507043204 5 60 0.0 0.0 0.00 0.00 0.00 89 1011.4
20260507042441 5 60 0.0 0.0 0.00 0.00 0.00 90 1011.4
20260507041940 5 60 0.0 0.0 0.00 0.00 0.00 90 1011.4
20260507041659 5 60 0.0 0.0 0.00 0.00 0.00 89 1011.3
20260507040937 5 60 0.0 1.6 0.00 0.00 0.00 89 1011.4
20260507040436 5 60 1.6 4.8 0.00 0.00 0.00 88 1011.3
20260507035934 5 60 1.6 4.8 0.00 0.00 0.00 89 1011.2
20260507035433 5 332 0.0 3.2 0.00 0.00 0.00 89 1011.2
20260507034930 5 113 0.0 3.2 0.00 0.00 0.00 89 1011.2
20260507034428 5 113 1.6 3.2 0.00 0.00 0.00 89 1011.0
20260507033926 5 113 0.0 3.2 0.00 0.00 0.00 89 1011.0
20260507033425 5 113 0.0 1.6 0.00 0.00 0.00 89 1011.0
20260507032924 5 113 0.0 1.6 0.00 0.00 0.00 89 1010.9
20260507032424 5 113 0.0 1.6 0.00 0.00 0.00 88 1010.8
20260507031922 5 113 0.0 3.2 0.00 0.00 0.00 88 1010.8
20260507031423 5 113 0.0 3.2 0.00 0.00 0.00 87 1010.6
20260507030920 5 113 0.0 1.6 0.00 0.00 0.00 88 1010.5
20260507030420 5 113 0.0 1.6 0.00 0.00 0.00 87 1010.6
20260507025918 5 113 0.0 1.6 0.00 0.00 0.00 88 1010.6
20260507025645 5 113 0.0 1.6 0.00 0.00 0.00 87 1010.5
20260507024918 5 113 0.0 1.6 0.00 0.00 0.00 88 1010.4
20260507024416 5 113 0.0 1.6 0.00 0.00 0.00 87 1010.3
20260507023918 5 113 0.0 1.6 0.00 0.00 0.00 87 1010.3
20260507023415 5 113 0.0 3.2 0.00 0.00 0.00 86 1010.3
20260507022921 5 113 1.6 3.2 0.00 0.00 0.00 87 1010.2
20260507022417 5 113 1.6 3.2 0.00 0.00 0.00 87 1010.2
20260507021917 5 113 0.0 3.2 0.00 0.00 0.00 87 1010.2
20260507021418 5 113 0.0 1.6 0.00 0.00 0.00 87 1010.2
20260507020918 5 113 1.6 4.8 0.00 0.00 0.00 86 1010.2
20260507020413 5 113 1.6 4.8 0.00 0.00 0.00 87 1010.2
20260507015914 5 104 0.0 4.8 0.00 0.00 0.00 86 1010.2
20260507015412 5 132 0.0 3.2 0.00 0.00 0.00 86 1010.3
20260507014914 6 132 1.6 4.8 0.00 0.00 0.00 85 1010.2
20260507014412 5 132 0.0 4.8 0.00 0.00 0.00 86 1010.1
20260507013913 5 91 0.0 0.0 0.00 0.00 0.00 86 1010.1
20260507013418 6 91 0.0 0.0 0.00 0.00 0.00 84 1010.1
20260507012914 5 91 0.0 0.0 0.00 0.00 0.00 85 1010.0
20260507012412 6 91 0.0 0.0 0.00 0.00 0.00 84 1010.1
20260507011917 6 91 0.0 0.0 0.00 0.00 0.00 84 1010.1
20260507011411 6 91 0.0 0.0 0.00 0.00 0.00 83 1010.0
20260507011134 6 91 0.0 0.0 0.00 0.00 0.00 83 1010.0
20260507010412 6 91 0.0 0.0 0.00 0.00 0.00 82 1010.1
20260507005911 6 91 0.0 3.2 0.00 0.00 0.00 82 1010.1
20260507005410 6 46 0.0 3.2 0.00 0.00 0.00 81 1010.0
20260507004911 6 0 0.0 3.2 0.00 0.00 0.00 80 1010.0
20260507004637 7 0 0.0 3.2 0.00 0.00 0.00 80 1010.0
20260507003909 7 350 0.0 0.0 0.00 0.00 0.00 78 1010.1
20260507003408 7 350 0.0 4.8 0.00 0.00 0.00 78 1010.0
20260507002907 7 350 1.6 6.4 0.00 0.00 0.00 77 1010.1
20260507002405 7 334 1.6 6.4 0.00 0.00 0.00 77 1010.0
20260507001904 7 331 1.6 6.4 0.00 0.00 0.00 76 1010.0
20260507001405 7 0 1.6 4.8 0.00 0.00 0.00 75 1010.0
20260507000912 8 300 1.6 6.4 0.00 0.00 0.00 71 1010.0
20260507000906 8 0 1.6 4.8 0.00 0.00 0.00 74 1010.0
20260506235904 8 190 3.2 6.4 0.00 0.00 0.00 68 1010.0
20260506235404 9 139 3.2 8.0 0.00 0.00 0.00 65 1010.0
20260506234903 9 135 3.2 12.9 0.00 0.00 0.00 64 1009.9
20260506234404 9 119 3.2 12.9 0.00 0.00 0.00 63 1010.0
20260506233903 10 141 4.8 12.9 0.00 0.00 0.00 62 1009.7
20260506233401 10 130 4.8 14.5 0.00 0.00 0.00 60 1009.7
20260506232902 10 148 6.4 16.1 0.00 0.00 0.00 60 1009.7
20260506232401 10 148 8.0 19.3 0.00 0.00 0.00 57 1009.7
20260506231902 10 161 8.0 19.3 0.00 0.00 0.00 60 1009.7
20260506231401 10 146 8.0 19.3 0.00 0.00 0.00 59 1009.9
20260506231351 11 150 8.0 20.9 0.00 0.00 0.00 56 1009.7
20260506230402 10 90 6.4 20.9 0.00 0.00 0.00 58 1009.7
20260506225901 11 154 8.0 17.7 0.00 0.00 0.00 58 1010.0
20260506225407 11 210 11.3 20.9 0.00 0.00 0.00 57 1009.9
20260506224901 10 134 8.0 20.9 0.00 0.00 0.00 58 1009.9
20260506224354 10 148 11.3 17.7 0.00 0.00 0.00 61 1009.9
20260506223851 10 165 12.9 17.7 0.00 0.00 0.00 60 1009.9
20260506223352 10 141 11.3 20.9 0.00 0.00 0.00 62 1009.7
20260506222852 10 161 8.0 20.9 0.00 0.00 0.00 63 1009.6
20260506222351 11 98 11.3 20.9 0.00 0.00 0.00 60 1009.7
20260506221851 11 161 11.3 20.9 0.00 0.00 0.00 57 1009.6
20260506221353 11 161 11.3 20.9 0.00 0.00 0.00 56 1009.6
20260506220851 11 147 8.0 20.9 0.00 0.00 0.00 59 1009.7
20260506220352 10 163 8.0 19.3 0.00 0.00 0.00 61 1009.7
20260506220117 11 141 11.3 19.3 0.00 0.00 0.00 59 1009.6
20260506215348 11 163 12.9 24.1 0.00 0.00 0.00 59 1009.5
20260506215117 11 176 12.9 24.1 0.00 0.00 0.00 61 1009.4
20260506214349 10 180 11.3 24.1 0.00 0.00 0.00 61 1009.5
20260506213847 11 158 8.0 20.9 0.00 0.00 0.00 61 1009.5
20260506213346 11 188 8.0 17.7 0.00 0.00 0.00 61 1009.5
20260506212847 11 161 8.0 19.3 0.00 0.00 0.00 60 1009.4
20260506212346 11 173 11.3 19.3 0.00 0.00 0.00 60 1009.3
20260506211843 11 199 11.3 22.5 0.00 0.00 0.00 61 1009.3
20260506211343 11 138 12.9 22.5 0.00 0.00 0.00 61 1009.3
20260506210842 11 174 12.9 22.5 0.00 0.00 0.00 62 1009.3
20260506210343 11 150 12.9 22.5 0.00 0.00 0.00 61 1009.3
20260506205843 11 146 11.3 20.9 0.00 0.00 0.00 61 1009.2
20260506205611 11 213 11.3 19.3 0.00 0.00 0.00 61 1009.2
20260506205125 11 227 11.3 19.3 0.00 0.00 0.00 62 1009.1
20260506204606 11 159 11.3 20.9 0.00 0.00 0.00 62 1009.2
20260506203838 11 141 12.9 20.9 0.00 0.00 0.00 64 1009.2
20260506203339 11 143 12.9 20.9 0.00 0.00 0.00 65 1009.1
20260506202840 11 145 14.5 30.6 0.00 0.00 0.00 63 1009.1
20260506202558 11 162 12.9 30.6 0.00 0.00 0.00 62 1009.2
20260506201835 11 172 11.3 20.9 0.00 0.00 0.00 63 1008.8
20260506201334 11 164 12.9 22.5 0.00 0.00 0.00 62 1009.0
20260506200833 11 169 8.0 22.5 0.00 0.00 0.00 63 1008.8
20260506200332 11 155 8.0 20.9 0.00 0.00 0.00 64 1009.1
20260506200108 11 157 8.0 20.9 0.00 0.00 0.00 67 1009.0
20260506195331 11 164 12.9 22.5 0.00 0.00 0.00 66 1008.7
20260506195052 11 164 14.5 22.5 0.00 0.00 0.00 69 1008.6
20260506194331 11 168 12.9 22.5 0.00 0.00 0.00 69 1008.7
20260506193830 11 200 8.0 20.9 0.00 0.00 0.00 68 1008.6
20260506193331 11 144 6.4 17.7 0.00 0.00 0.00 70 1008.5
20260506192830 11 167 6.4 17.7 0.00 0.00 0.00 69 1008.7
20260506192331 11 157 8.0 24.1 0.00 0.00 0.00 69 1008.6
20260506192100 11 192 11.3 24.1 0.00 0.00 0.00 70 1008.4
20260506191332 11 164 8.0 20.9 0.00 0.00 0.00 70 1008.4
20260506190830 11 154 8.0 20.9 0.00 0.00 0.00 71 1008.4
20260506190328 11 147 11.3 20.9 0.00 0.00 0.00 72 1008.2
20260506185821 11 169 11.3 20.9 0.00 0.00 0.00 71 1008.3
20260506185316 11 119 8.0 20.9 0.00 0.00 0.00 71 1008.2
20260506184810 11 140 8.0 24.1 0.00 0.00 0.00 69 1007.9
20260506184303 12 103 11.3 24.1 0.00 0.00 0.00 67 1007.9
20260506183757 12 173 12.9 24.1 0.00 0.00 0.00 67 1007.6
20260506183256 12 140 12.9 24.1 0.00 0.00 0.00 67 1007.5
20260506182759 12 131 11.3 24.1 0.00 0.00 0.00 67 1007.4
20260506182256 12 205 11.3 20.9 0.00 0.00 0.00 67 1007.3
20260506181756 12 203 11.3 25.7 0.00 0.00 0.00 66 1007.3
20260506181257 12 146 8.0 25.7 0.00 0.00 0.00 65 1007.2
20260506180758 12 156 11.3 24.1 0.00 0.00 0.00 66 1007.1
20260506180256 12 159 12.9 24.1 0.00 0.00 0.00 65 1007.1
20260506175754 12 146 12.9 24.1 0.00 0.00 0.00 66 1006.9
20260506175254 12 142 14.5 29.0 0.00 0.00 0.00 67 1007.2
20260506174754 12 129 16.1 29.0 0.00 0.00 0.00 67 1007.1
20260506174252 12 148 14.5 29.0 0.00 0.00 0.00 67 1006.9
20260506173752 12 139 12.9 22.5 0.00 0.00 0.00 69 1006.9
20260506173746 12 128 12.9 24.1 0.00 0.00 0.00 69 1006.8
20260506173252 12 130 12.9 22.5 0.00 0.00 0.00 69 1006.8
20260506172252 12 159 14.5 25.7 0.00 0.00 0.00 68 1006.8
20260506171752 12 134 12.9 25.7 0.00 0.00 0.00 69 1006.8
20260506171252 12 117 12.9 19.3 0.00 0.00 0.00 69 1006.6
20260506170748 12 100 14.5 25.7 0.00 0.00 0.00 69 1006.7
20260506170248 11 134 14.5 25.7 0.00 0.00 0.00 71 1006.7
20260506165748 11 161 12.9 22.5 0.00 0.00 0.00 71 1006.5
20260506165248 11 173 11.3 22.5 0.00 0.00 0.00 69 1006.5
20260506164748 11 152 11.3 20.9 0.00 0.00 0.00 72 1006.5
20260506164248 12 183 11.3 24.1 0.00 0.00 0.00 70 1006.4
20260506163748 12 128 12.9 24.1 0.00 0.00 0.00 69 1006.5
20260506163248 12 159 14.5 24.1 0.00 0.00 0.00 69 1006.4
20260506162749 12 153 16.1 32.2 0.00 0.00 0.00 68 1006.4
20260506162737 12 146 16.1 32.2 0.00 0.00 0.00 67 1006.6
20260506161748 12 153 14.5 25.7 0.00 0.00 0.00 64 1006.5
20260506161246 12 177 17.7 33.8 0.00 0.00 0.00 63 1006.4
20260506160746 12 142 17.7 33.8 0.00 0.00 0.00 63 1006.3
20260506160246 13 200 16.1 33.8 0.00 0.00 0.00 62 1006.3
20260506155745 13 119 16.1 33.8 0.00 0.00 0.00 62 1006.4
20260506155515 13 184 16.1 32.2 0.00 0.00 0.00 61 1006.4
20260506154746 13 112 19.3 33.8 0.00 0.00 0.00 61 1006.5
20260506154246 13 139 17.7 33.8 0.00 0.00 0.00 61 1006.4
20260506153745 13 148 14.5 25.7 0.00 0.00 0.00 61 1006.4
20260506153248 13 131 16.1 37.0 0.00 0.00 0.00 61 1006.4
20260506152746 13 141 16.1 37.0 0.00 0.00 0.00 60 1006.5
20260506152246 13 105 12.9 30.6 0.00 0.00 0.00 60 1006.4
20260506151745 13 114 12.9 20.9 0.00 0.00 0.00 61 1006.7
20260506151245 13 136 14.5 30.6 0.00 0.00 0.00 63 1006.6
20260506151011 13 144 16.1 33.8 0.00 0.00 0.00 61 1006.7
20260506150242 13 121 14.5 35.4 0.00 0.00 0.00 62 1006.8
20260506145740 13 135 12.9 35.4 0.00 0.00 0.00 62 1006.7
20260506145506 13 32 14.5 25.7 0.00 0.00 0.00 62 1006.8
20260506144738 13 149 16.1 32.2 0.00 0.00 0.00 62 1006.7
20260506144236 13 143 16.1 45.1 0.00 0.00 0.00 62 1006.7
20260506144008 13 155 14.5 45.1 0.00 0.00 0.00 61 1006.7
20260506143235 13 140 16.1 32.2 0.00 0.00 0.00 63 1006.7
20260506142734 13 128 16.1 32.2 0.00 0.00 0.00 62 1006.9
20260506142456 13 55 16.1 29.0 0.00 0.00 0.00 61 1006.9
20260506141732 13 61 16.1 35.4 0.00 0.00 0.00 61 1006.9
20260506141229 13 162 14.5 35.4 0.00 0.00 0.00 61 1006.8
20260506140731 13 78 14.5 29.0 0.00 0.00 0.00 61 1006.8
20260506140223 13 153 16.1 29.0 0.00 0.00 0.00 60 1006.7
20260506135717 13 153 14.5 25.7 0.00 0.00 0.00 60 1006.8
20260506135442 13 141 12.9 25.7 0.00 0.00 0.00 60 1006.9
20260506134703 13 101 14.5 25.7 0.00 0.00 0.00 61 1006.9
20260506134203 13 163 16.1 29.0 0.00 0.00 0.00 62 1007.1
20260506133702 13 107 19.3 37.0 0.00 0.00 0.00 62 1006.9
20260506133201 13 153 19.3 37.0 0.00 0.00 0.00 64 1007.2
20260506132701 13 191 17.7 33.8 0.00 0.00 0.00 63 1007.4
20260506132201 13 150 19.3 33.8 0.00 0.00 0.00 65 1007.3
20260506131700 13 154 17.7 30.6 0.00 0.00 0.00 66 1007.4
20260506131201 13 185 16.1 25.7 0.00 0.00 0.00 66 1007.3
20260506130701 13 147 16.1 32.2 0.00 0.00 0.00 66 1007.3
20260506130201 12 131 16.1 35.4 0.00 0.00 0.00 69 1007.3
20260506125702 12 145 16.1 35.4 0.00 0.00 0.00 68 1007.3
20260506125201 12 173 16.1 29.0 0.00 0.00 0.00 71 1007.3